Location: Bilsen
(53.7722°N, 9.8765°E)
Time: 17:06:12
(UTC+00:00)

Cosmos 2237 Rocket - Pass Details

Date: 18 February 2020
Orbit: 835 x 849 km, 71.0° (Epoch: 06 April)

Event Time Altitude Azimuth Distance (km) Brightness Sun altitude
Exits shadow 05:30:58 12° 290° (WNW) 2,314 3.9 -10.0°
Maximum altitude 05:34:32 20° 333° (NNW) 1,832 3.7 -9.5°
Drops below altitude 10° 05:38:41 10° 20° (NNE) 2,460 4.8 -8.9°
Sets 05:41:48 0° 37° (NE) 3,398 5.8 -8.4°
